Sierra Vista Municipal Libby Army Air Field
KFHU : now visible

Airfield :











YOU CAN JOIN US ON...

 
LOGIN :

Register | Disclaimer

   EN    FR    IT 

 









Legend :    VFR   Marginal VFR   IFR   Intensive IFR   Very Intensive IFR
Visi :
Ceiling :
>= 8 km
>= 3000ft
5 to 8 km
1000 to 3000 ft
1500m to 5 km
500 to 1000 ft
800 to 1500m
200 to 500 ft
< 800m
< 200 ft
Symbols :   Thunderstorms  Fog  Heavy snow  Heavy precipitations  Wind > 20 kt







- Airport Elevation : 4719 ft
- IATA code : FHU


KFHU - Sierra Vista Municipal Libby Army Air Field

CURRENT METAR :
  • 181858Z AUTO 32007KT 10SM BKN120 29/15 A3016 RMK AO2 SLPNO T02910152

EXPIRED METARs :
  • 181824Z AUTO 02004KT 10SM BKN110 28/15 A3016 RMK AO2 PRESFR SLPNO
  • 181758Z VRB05KT 10SM SCT120 28/16 A3021 RMK WND DATA ESTMD ALTSG ESTMD
  • 181658Z AUTO 01005KT 10SM OVC120 27/15 A3018 RMK AO2 SLP147 T02700154

TAF TAF KFHU
Valid from the 18 at 18:00 until the 20 at 00:00 UTC


181802Z 1818/1924 31009KT 9999 BKN100 QNH3011INS
BECMG 1820/1821 30012G18KT 9999 VCTS BKN100CB QNH3003INS
TEMPO 1822/1902 VRB15G30KT 6000 -TSRA BKN090CB
BECMG 1904/1905 27009KT 9999 NSW SCT120 BKN160 QNH3006INS
BECMG 1917/1918 31012G18KT 9999 BKN110 QNH3000INS TX33/1822Z TN19/1913Z
KZAB FIR / North America



MET'MAP, your aeronautical weather chart ! - Copyright ORBIFLY December 2007 - Disclaimer

ORBIFLY MET'MAP TEAM :

Programming & Development : Alexandra Zaïnal
Concept & Development : Baudouin d'Aumeries
Co-Development & Prog : Marc-Olivier Méhu
Technical & hardware support : Manuel Goepfert

Contact : metmap@orbifly.com




SOURCES & CREDITS :

   NOAA       Earth
Advisory